Location: Cambridge
(43.3830°N, 80.3170°W)
Time: 16:15:20
(UTC-05:00)

Envisat - Pass Details

Date: 26 October 2019
Orbit: 764 x 766 km, 98.1° (Epoch: 22 November)

Event Time Altitude Azimuth Distance (km) Brightness Sun altitude
Rises 06:52:18 0° 33° (NNE) 3,239 6.6 -10.8°
Reaches altitude 10° 06:55:57 10° 60° (ENE) 2,306 6.3 -10.2°
Maximum altitude 06:58:19 13° 88° (E) 2,085 6.7 -9.8°
Drops below altitude 10° 07:00:40 10° 116° (ESE) 2,298 6.8 -9.3°
Sets 07:04:17 0° 144° (SE) 3,217 7.0 -8.7°
